�������l�o���
Date,Time,MP-1(��Sv/h),MP-2(��Sv/h),MP-3(��Sv/h),MP-4(��Sv/h),MP-5(��Sv/h),MP-6(��Sv/h),MP-7(��Sv/h),MP-8(��Sv/h),����,����(m/s),���J
2015/03/09,00:00,1.835,3.290,3.595,3.250,3.403,1.068,1.755,1.853,�k,6.3,��
2015/03/09,00:10,1.837,3.292,3.595,3.252,3.408,1.067,1.755,1.857,�k,6.1,��
2015/03/09,00:20,1.835,3.288,3.600,3.253,3.408,1.068,1.757,1.858,�k,6.8,��
2015/03/09,00:30,1.838,3.290,3.597,3.252,3.408,1.067,1.757,1.853,�k,7.5,��
2015/03/09,00:40,1.837,3.290,3.600,3.252,3.410,1.068,1.755,1.857,�k,7.1,��
2015/03/09,00:50,1.838,3.293,3.603,3.255,3.410,1.070,1.757,1.858,�k,6.4,��
2015/03/09,01:00,1.840,3.292,3.607,3.257,3.410,1.065,1.755,1.857,�k�k��,6.4,��
2015/03/09,01:10,1.837,3.297,3.603,3.260,3.408,1.068,1.757,1.858,�k�k��,6.1,��
2015/03/09,01:20,1.840,3.293,3.607,3.257,3.412,1.070,1.755,1.858,�k,5.5,��
2015/03/09,01:30,1.840,3.295,3.603,3.258,3.413,1.073,1.755,1.860,�k,5.6,��
2015/03/09,01:40,1.838,3.298,3.607,3.255,3.415,1.068,1.755,1.860,�k�k��,5.1,��
2015/03/09,01:50,1.838,3.297,3.603,3.260,3.417,1.068,1.757,1.860,�k,5.4,��
2015/03/09,02:00,1.838,3.302,3.608,3.262,3.420,1.072,1.757,1.860,�k�k��,5.8,��
2015/03/09,02:10,1.840,3.307,3.608,3.262,3.423,1.070,1.760,1.860,�k,5.5,��
2015/03/09,02:20,1.842,3.303,3.612,3.267,3.418,1.072,1.758,1.857,�k�k��,5.6,��
2015/03/09,02:30,1.840,3.302,3.608,3.262,3.423,1.073,1.758,1.860,�k,6.3,��
2015/03/09,02:40,1.842,3.303,3.608,3.260,3.420,1.070,1.758,1.857,�k,6.0,��
2015/03/09,02:50,1.838,3.303,3.607,3.263,3.422,1.072,1.755,1.858,�k�k��,6.5,��
2015/03/09,03:00,1.838,3.303,3.612,3.267,3.425,1.068,1.757,1.860,�k,6.7,��
2015/03/09,03:10,1.842,3.303,3.615,3.263,3.425,1.070,1.758,1.860,�k�k��,7.2,��
2015/03/09,03:20,1.842,3.303,3.612,3.265,3.430,1.070,1.758,1.860,�k,6.3,��
2015/03/09,03:30,1.845,3.300,3.615,3.267,3.428,1.073,1.760,1.862,�k,6.4,��
2015/03/09,03:40,1.845,3.302,3.615,3.267,3.427,1.077,1.760,1.857,�k,5.7,��
2015/03/09,03:50,1.845,3.307,3.615,3.263,3.425,1.070,1.758,1.858,�k,5.6,��
2015/03/09,04:00,1.843,3.308,3.613,3.267,3.432,1.070,1.758,1.858,�k,5.3,��
2015/03/09,04:10,1.842,3.308,3.615,3.267,3.428,1.073,1.760,1.862,�k,4.9,��
2015/03/09,04:20,1.842,3.307,3.612,3.267,3.430,1.072,1.760,1.860,�k,5.4,��
2015/03/09,04:30,1.843,3.305,3.620,3.268,3.432,1.073,1.758,1.858,�k,5.4,��
2015/03/09,04:40,1.840,3.307,3.620,3.267,3.432,1.072,1.760,1.862,�k,6.0,�L
2015/03/09,04:50,1.847,3.308,3.617,3.270,3.432,1.072,1.760,1.860,�k,4.9,�L
2015/03/09,05:00,1.845,3.310,3.615,3.270,3.430,1.072,1.757,1.862,�k,5.5,�L
2015/03/09,05:10,1.848,3.307,3.617,3.270,3.430,1.070,1.760,1.865,�k,5.3,�L
2015/03/09,05:20,1.843,3.310,3.615,3.268,3.432,1.070,1.758,1.860,�k,6.3,��
2015/03/09,05:30,1.845,3.312,3.615,3.268,3.430,1.070,1.758,1.857,�k,6.5,�L
2015/03/09,05:40,1.848,3.307,3.610,3.270,3.423,1.072,1.758,1.858,�k,6.1,�L
2015/03/09,05:50,1.847,3.307,3.613,3.267,3.427,1.068,1.760,1.858,�k,5.2,�L
2015/03/09,06:00,1.845,3.307,3.613,3.268,3.432,1.070,1.758,1.862,�k,5.4,�L
2015/03/09,06:10,1.843,3.305,3.612,3.267,3.425,1.072,1.762,1.857,�k,5.2,�L
2015/03/09,06:20,1.848,3.307,3.610,3.263,3.427,1.070,1.757,1.860,�k,4.9,�L
2015/03/09,06:30,1.847,3.307,3.612,3.265,3.422,1.068,1.758,1.860,�k,4.4,�L
2015/03/09,06:40,1.845,3.303,3.613,3.267,3.420,1.067,1.758,1.862,�k,5.1,�L
2015/03/09,06:50,1.845,3.302,3.610,3.265,3.420,1.067,1.762,1.860,�k,5.4,�L
2015/03/09,07:00,1.845,3.303,3.607,3.267,3.417,1.067,1.758,1.862,�k,5.5,�L
2015/03/09,07:10,1.845,3.297,3.602,3.268,3.412,1.058,1.757,1.857,�k,5.8,�L
2015/03/09,07:20,1.843,3.295,3.600,3.263,3.412,1.055,1.758,1.860,�k�k��,6.0,�L
2015/03/09,07:30,1.843,3.292,3.600,3.262,3.410,1.055,1.758,1.860,�k�k��,6.3,�L
2015/03/09,07:40,1.840,3.288,3.593,3.258,3.408,1.052,1.755,1.857,�k�k��,6.0,�L
2015/03/09,07:50,1.840,3.287,3.585,3.252,3.407,1.053,1.755,1.855,�k�k��,6.0,�L
2015/03/09,08:00,1.838,3.282,3.582,3.248,3.400,1.053,1.755,1.858,�k�k��,4.9,�L
2015/03/09,08:10,1.837,3.277,3.577,3.248,3.395,1.048,1.755,1.857,�k,4.7,�L
2015/03/09,08:20,1.830,3.270,3.572,3.240,3.393,1.047,1.753,1.855,�k�k��,4.7,�L
2015/03/09,08:30,1.828,3.268,3.570,3.238,3.392,1.045,1.752,1.853,�k�k��,4.5,�L
2015/03/09,08:40,1.830,3.268,3.568,3.237,3.385,1.043,1.752,1.850,�k�k��,5.4,�L
2015/03/09,08:50,1.830,3.270,3.573,3.237,3.385,1.042,1.752,1.853,�k�k��,5.7,�L
2015/03/09,09:00,1.830,3.265,3.567,3.237,3.385,1.045,1.752,1.852,�k�k��,5.7,�L
2015/03/09,09:10,1.823,3.260,3.567,3.235,3.383,1.043,1.750,1.847,�k�k��,6.0,�L
2015/03/09,09:20,1.822,3.258,3.562,3.232,3.383,1.045,1.753,1.848,�k�k��,5.1,�L
2015/03/09,09:30,1.823,3.258,3.558,3.232,3.380,1.043,1.750,1.847,�k�k��,5.5,�L
2015/03/09,09:40,1.823,3.255,3.553,3.225,3.380,1.043,1.753,1.847,�k�k��,5.4,�L
2015/03/09,09:50,1.822,3.252,3.557,3.228,3.377,1.043,1.752,1.847,�k�k��,4.7,�L
2015/03/09,10:00,1.820,3.248,3.558,3.228,3.375,1.043,1.752,1.845,�k�k��,5.1,�L
2015/03/09,10:10,1.822,3.245,3.555,3.222,3.378,1.045,1.750,1.843,�k�k��,5.0,�L
2015/03/09,10:20,1.822,3.240,3.557,3.222,3.377,1.043,1.747,1.847,�k,4.9,�L
2015/03/09,10:30,1.827,3.230,3.563,3.227,3.380,1.043,1.752,1.847,�k�k��,4.9,�L
2015/03/09,10:40,1.823,3.233,3.562,3.227,3.380,1.040,1.752,1.848,�k,5.1,�L
2015/03/09,10:50,1.823,3.232,3.565,3.228,3.377,1.045,1.752,1.847,�k�k��,4.4,�L
2015/03/09,11:00,1.822,3.230,3.563,3.223,3.373,1.042,1.748,1.845,�k�k��,4.5,�L
2015/03/09,11:10,1.817,3.235,3.550,3.210,3.368,1.040,1.745,1.842,�k�k��,5.0,�L
2015/03/09,11:20,1.810,3.237,3.540,3.208,3.362,1.040,1.745,1.838,�k�k��,4.6,�L
2015/03/09,11:30,1.808,3.223,3.530,3.203,3.347,1.040,1.743,1.840,�k�k��,5.3,�L
2015/03/09,11:40,1.805,3.220,3.525,3.193,3.332,1.043,1.743,1.840,�k�k��,5.1,�L
2015/03/09,11:50,1.805,3.215,3.523,3.192,3.332,1.040,1.738,1.840,�k�k��,6.0,�L
2015/03/09,12:00,1.805,3.218,3.525,3.193,3.328,1.043,1.740,1.842,�k,4.9,�L
2015/03/09,12:10,1.808,3.220,3.525,3.198,3.333,1.040,1.740,1.838,�k,4.4,�L
2015/03/09,12:20,1.808,3.222,3.528,3.200,3.337,1.040,1.738,1.838,�k��,3.0,�L
2015/03/09,12:30,1.808,3.225,3.528,3.195,3.333,1.042,1.738,1.833,�k�k��,8.6,�L
2015/03/09,12:40,1.812,3.222,3.532,3.195,3.327,1.042,1.742,1.835,�k,4.3,�L
2015/03/09,12:50,1.812,3.223,3.535,3.197,3.325,1.042,1.742,1.833,�k,4.1,�L
2015/03/09,13:00,1.813,3.223,3.535,3.200,3.325,1.042,1.740,1.833,�k,4.4,�L
2015/03/09,13:10,1.810,3.223,3.533,3.200,3.328,1.042,1.742,1.837,�k,4.1,�L
2015/03/09,13:20,1.815,3.223,3.532,3.198,3.333,1.045,1.740,1.840,�k,5.3,�L
2015/03/09,13:30,1.815,3.222,3.537,3.200,3.332,1.045,1.743,1.837,�k,5.1,�L
2015/03/09,13:40,1.818,3.232,3.538,3.207,3.332,1.047,1.743,1.838,�k,5.7,�L
2015/03/09,13:50,1.817,3.225,3.535,3.203,3.327,1.048,1.742,1.837,�k,4.5,�L
2015/03/09,14:00,1.812,3.217,3.527,3.198,3.317,1.050,1.737,1.838,�k,5.2,�L
2015/03/09,14:10,1.808,3.215,3.523,3.195,3.317,1.047,1.740,1.837,�k,5.4,�L
2015/03/09,14:20,1.808,3.218,3.527,3.197,3.317,1.050,1.738,1.835,�k,5.4,�L
2015/03/09,14:30,1.810,3.210,3.522,3.198,3.317,1.050,1.738,1.837,�k,5.6,�L
2015/03/09,14:40,1.808,3.208,3.520,3.195,3.315,1.048,1.740,1.835,�k,5.8,�L
2015/03/09,14:50,1.808,3.212,3.520,3.195,3.310,1.047,1.737,1.837,�k,5.8,�L
2015/03/09,15:00,1.805,3.208,3.518,3.192,3.313,1.048,1.738,1.835,�k,6.3,�L
2015/03/09,15:10,1.807,3.207,3.520,3.195,3.315,1.050,1.740,1.837,�k,6.6,�L
2015/03/09,15:20,1.810,3.213,3.527,3.198,3.318,1.048,1.738,1.837,�k,6.4,�L
2015/03/09,15:30,1.812,3.212,3.525,3.197,3.318,1.050,1.738,1.840,�k,7.4,�L
2015/03/09,15:40,1.808,3.213,3.523,3.193,3.318,1.052,1.738,1.838,�k,5.0,�L
2015/03/09,15:50,1.810,3.213,3.523,3.192,3.317,1.052,1.737,1.837,�k�k��,5.6,�L
2015/03/09,16:00,1.810,3.210,3.522,3.190,3.315,1.052,1.738,1.837,�k�k��,4.9,�L
2015/03/09,16:10,1.810,3.207,3.518,3.192,3.308,1.052,1.738,1.837,�k�k��,4.9,�L
2015/03/09,16:20,1.807,3.208,3.512,3.190,3.300,1.053,1.737,1.837,�k�k��,4.9,�L
2015/03/09,16:30,1.802,3.202,3.510,3.185,3.292,1.050,1.735,1.835,�k�k��,4.5,�L
2015/03/09,16:40,1.802,3.198,3.507,3.183,3.285,1.053,1.732,1.832,�k�k��,5.2,�L
2015/03/09,16:50,1.803,3.195,3.502,3.182,3.283,1.053,1.735,1.833,�k�k��,4.9,�L
2015/03/09,17:00,1.800,3.198,3.507,3.182,3.288,1.053,1.735,1.833,�k,4.6,�L
2015/03/09,17:10,1.803,3.202,3.517,3.188,3.295,1.053,1.733,1.837,�k�k��,4.7,�L
2015/03/09,17:20,1.805,3.198,3.508,3.183,3.282,1.053,1.732,1.833,�k,4.3,�L
2015/03/09,17:30,1.800,3.187,3.503,3.178,3.275,1.052,1.732,1.833,�k�k��,4.2,�L
2015/03/09,17:40,1.795,3.180,3.497,3.175,3.270,1.052,1.730,1.830,�k�k��,4.9,�L
2015/03/09,17:50,1.795,3.167,3.487,3.167,3.255,1.052,1.727,1.828,�k�k��,6.5,�L
2015/03/09,18:00,1.790,3.158,3.477,3.167,3.247,1.053,1.725,1.827,�k�k��,5.6,�L
2015/03/09,18:10,1.787,3.147,3.470,3.155,3.230,1.052,1.720,1.827,�k�k��,8.2,�L
2015/03/09,18:20,1.778,3.120,3.453,3.143,3.205,1.048,1.718,1.820,�k�k��,6.6,�L
2015/03/09,18:30,1.775,3.105,3.450,3.143,3.190,1.048,1.713,1.822,�k��,6.8,�L
2015/03/09,18:40,1.782,3.127,3.462,3.153,3.207,1.050,1.713,1.822,�k��,7.4,�L
2015/03/09,18:50,1.780,3.117,3.447,3.140,3.185,1.048,1.712,1.820,�k�k��,6.6,�L
2015/03/09,19:00,1.770,3.097,3.437,3.135,3.165,1.043,1.707,1.818,�k�k��,6.0,�L
2015/03/09,19:10,1.772,3.110,3.442,3.137,3.167,1.045,1.708,1.817,�k�k��,4.7,�L
2015/03/09,19:20,1.778,3.113,3.445,3.140,3.165,1.045,1.707,1.818,�k�k��,3.8,�L
2015/03/09,19:30,1.767,3.073,3.403,3.110,3.105,1.037,1.698,1.807,�k�k��,3.5,�L
2015/03/09,19:40,1.763,3.080,3.412,3.118,3.107,1.042,1.698,1.808,�k,2.4,�L
2015/03/09,19:50,1.780,3.110,3.433,3.142,3.133,1.045,1.702,1.810,�k�k��,3.2,�L
2015/03/09,20:00,1.780,3.107,3.405,3.118,3.075,1.040,1.692,1.807,���k��,0.9,�L
2015/03/09,20:10,1.773,3.080,3.382,3.107,3.043,1.038,1.692,1.805,�쓌,1.7,�L
2015/03/09,20:20,1.773,3.090,3.385,3.113,3.050,1.040,1.687,1.805,�쓌,3.5,�L
2015/03/09,20:30,1.760,3.043,3.328,3.088,2.992,1.035,1.680,1.795,���k��,2.8,�L
2015/03/09,20:40,1.755,3.035,3.305,3.085,2.947,1.030,1.677,1.790,��쓌,7.4,�L
2015/03/09,20:50,1.755,3.027,3.270,3.072,2.885,1.025,1.665,1.783,�쓌,6.9,�L
2015/03/09,21:00,1.748,3.008,3.220,3.048,2.783,1.017,1.657,1.778,��,3.2,�L
2015/03/09,21:10,1.760,3.037,3.218,3.065,2.760,1.027,1.663,1.787,���쓌,6.9,�L
2015/03/09,21:20,1.778,3.085,3.243,3.090,2.785,1.035,1.670,1.795,�쓌,4.5,�L
2015/03/09,21:30,1.780,3.072,3.228,3.080,2.767,1.032,1.672,1.792,��쓌,2.1,�L
2015/03/09,21:40,1.770,3.053,3.205,3.072,2.733,1.030,1.672,1.790,��,2.3,�L
2015/03/09,21:50,1.768,3.057,3.202,3.067,2.723,1.030,1.670,1.792,��,15.2,�L
2015/03/09,22:00,1.768,3.048,3.190,3.060,2.700,1.025,1.668,1.792,���쓌,5.8,�L
2015/03/09,22:10,1.773,3.062,3.198,3.065,2.710,1.027,1.668,1.793,���쓌,9.1,�L
2015/03/09,22:20,1.775,3.065,3.200,3.068,2.718,1.033,1.670,1.792,-,CALM,�L
2015/03/09,22:30,1.778,3.078,3.213,3.073,2.735,1.035,1.675,1.793,���쓌,13.0,�L
2015/03/09,22:40,1.790,3.093,3.222,3.083,2.750,1.037,1.677,1.798,���쓌,11.3,�L
2015/03/09,22:50,1.787,3.080,3.213,3.075,2.745,1.035,1.677,1.797,-,CALM,�L
2015/03/09,23:00,1.780,3.083,3.215,3.077,2.748,1.037,1.680,1.797,-,CALM,�L
2015/03/09,23:10,1.788,3.103,3.240,3.092,2.777,1.040,1.683,1.800,-,CALM,�L
2015/03/09,23:20,1.790,3.098,3.243,3.088,2.783,1.038,1.683,1.800,-,CALM,�L
2015/03/09,23:30,1.785,3.087,3.242,3.088,2.783,1.037,1.682,1.800,���쓌,16.5,�L
2015/03/09,23:40,1.785,3.098,3.257,3.095,2.805,1.042,1.683,1.802,�쓌,11.3,�L
2015/03/09,23:50,1.787,3.108,3.265,3.095,2.818,1.040,1.687,1.805,�쓌,13.8,�L
